This is the latest recevied weather packets stored in our database for station/object DC1NF-7. If no packets are shown the sender has not sent any weather packets the latest 10 day(s).
| Time | Temp. | Humidity | Pressure | Rain* | Wind** | Luminosity | Snow |
|---|---|---|---|---|---|---|---|
| 1777580765 | 10.56° C | 43% | 1028.2 hPa | 0 mm | - | 0 W/m² | - |
| 1777580159 | 11.11° C | 42% | 1028.2 hPa | 0 mm | - | 0 W/m² | - |
| 1777579556 | 11.67° C | 41% | 1028.2 hPa | 0 mm | - | 0 W/m² | - |
| 1777578956 | 11.67° C | 41% | 1028.1 hPa | 0 mm | - | 0 W/m² | - |
| 1777578350 | 11.67° C | 40% | 1028.1 hPa | 0 mm | - | 0 W/m² | - |
| 1777577748 | 12.22° C | 38% | 1028 hPa | 0 mm | - | 0 W/m² | - |
| 1777577144 | 12.22° C | 38% | 1027.9 hPa | 0 mm | - | 0 W/m² | - |
| 1777576538 | 12.78° C | 37% | 1027.9 hPa | 0 mm | - | 0 W/m² | - |
| 1777575933 | 12.78° C | 36% | 1027.6 hPa | 0 mm | - | 0 W/m² | - |
| 1777575330 | 13.33° C | 35% | 1027.5 hPa | 0 mm | - | 0 W/m² | - |
| 1777574730 | 13.89° C | 34% | 1027.5 hPa | 0 mm | - | 1 W/m² | - |
| 1777574127 | 13.89° C | 33% | 1027.5 hPa | 0 mm | - | 4 W/m² | - |
| 1777573519 | 14.44° C | 32% | 1027.2 hPa | 0 mm | - | 8 W/m² | - |
| 1777572975 | 15° C | 31% | 1027.1 hPa | 0 mm | - | 14 W/m² | - |
| 1777572371 | 15° C | 30% | 1027.2 hPa | 0 mm | - | 19 W/m² | - |
| 1777571766 | 15.56° C | 29% | 1027.1 hPa | 0 mm | - | 28 W/m² | - |
| 1777571162 | 16.11° C | 28% | 1027.3 hPa | 0 mm | - | 41 W/m² | - |
| 1777570559 | 16.11° C | 27% | 1027.2 hPa | 0 mm | - | 48 W/m² | - |
| 1777569955 | 16.11° C | 26% | 1027.2 hPa | 0 mm | - | 60 W/m² | - |
| 1777569352 | 16.67° C | 26% | 1027.1 hPa | 0 mm | - | 71 W/m² | - |
| 1777568748 | 17.22° C | 25% | 1027.1 hPa | 0 mm | - | 102 W/m² | - |
| 1777568144 | 17.22° C | 25% | 1027.2 hPa | 0 mm | - | 127 W/m² | - |
| 1777567540 | 17.22° C | 24% | 1027.2 hPa | 0 mm | - | 144 W/m² | - |
| 1777566936 | 17.22° C | 23% | 1027.2 hPa | 0 mm | - | 154 W/m² | - |
| 1777566333 | 17.78° C | 23% | 1027.1 hPa | 0 mm | - | 169 W/m² | - |
* Rain latest hour (hover to see other rain measurements)
** Current wind speed in m/s (hover to see current wind gust speed)